This is the latest recevied weather packets stored in our database for station/object NB9X. If no packets are shown the sender has not sent any weather packets the latest 10 day(s).
| Time | Temp. | Humidity | Pressure | Rain* | Wind** | Luminosity | Snow |
|---|---|---|---|---|---|---|---|
| 1787953474 | 31.67° C | 100% | 1014.7 hPa | 0 mm | - | - | - |
| 1787953174 | 32.22° C | 100% | 1014.7 hPa | 0 mm | - | - | - |
| 1787952874 | 31.67° C | 100% | 1014.8 hPa | 0 mm | - | - | - |
| 1787952574 | 31.67° C | 100% | 1014.8 hPa | 0 mm | - | - | - |
| 1787952274 | 30.56° C | 100% | 1014.9 hPa | 0 mm | - | - | - |
| 1787951974 | 32.22° C | 100% | 1014.7 hPa | 0 mm | - | - | - |
| 1787951674 | 30.56° C | 100% | 1014.5 hPa | 0 mm | - | - | - |
| 1787951374 | 31.11° C | 100% | 1014.6 hPa | 0 mm | - | - | - |
| 1787951074 | 31.11° C | 100% | 1014.7 hPa | 0 mm | - | - | - |
| 1787950774 | 30.56° C | 100% | 1014.9 hPa | 0 mm | - | - | - |
| 1787950474 | 31.67° C | 100% | 1014.9 hPa | 0 mm | - | - | - |
| 1787950174 | 32.22° C | 100% | 1015 hPa | 0 mm | - | - | - |
| 1787949874 | 31.67° C | 100% | 1015 hPa | 0 mm | - | - | - |
| 1787949574 | 30° C | 100% | 1015.3 hPa | 0 mm | - | - | - |
| 1787949275 | 28.89° C | 100% | 1015.3 hPa | 0 mm | - | - | - |
| 1787948975 | 28.89° C | 100% | 1015.3 hPa | 0 mm | - | - | - |
| 1787948674 | 28.89° C | 100% | 1015.5 hPa | 0 mm | - | - | - |
| 1787948375 | 29.44° C | 100% | 1015.7 hPa | 0 mm | - | - | - |
| 1787948075 | 29.44° C | 100% | 1015.9 hPa | 0 mm | - | - | - |
| 1787947775 | 30° C | 100% | 1015.9 hPa | 0 mm | - | - | - |
| 1787947474 | 28.89° C | 100% | 1015.8 hPa | 0 mm | - | - | - |
| 1787947175 | 29.44° C | 100% | 1015.7 hPa | 0 mm | - | - | - |
| 1787946875 | 28.89° C | 100% | 1015.7 hPa | 0 mm | - | - | - |
| 1787946575 | 28.33° C | 100% | 1015.7 hPa | 0 mm | - | - | - |
| 1787946275 | 27.78° C | 100% | 1015.8 hPa | 0 mm | - | - | - |
* Rain latest hour (hover to see other rain measurements)
** Current wind speed in m/s (hover to see current wind gust speed)